This is the latest recevied weather packets stored in our database for station/object F5LKO-13. If no packets are shown the sender has not sent any weather packets the latest 10 day(s).
| Time | Temp. | Humidity | Pressure | Rain* | Wind** | Luminosity | Snow |
|---|---|---|---|---|---|---|---|
| 1777472635 | 21.67° C | 99% | 1010.7 hPa | 0 mm | - | 11 W/m² | - |
| 1777472329 | 21.67° C | 99% | 1010.6 hPa | 0 mm | - | 35 W/m² | - |
| 1777472023 | 21.67° C | 99% | 1010.7 hPa | 0 mm | - | 60 W/m² | - |
| 1777471717 | 22.22° C | 99% | 1010.7 hPa | 0 mm | - | 17 W/m² | - |
| 1777471422 | 21.11° C | 99% | 1010.8 hPa | 0 mm | - | 36 W/m² | - |
| 1777471106 | 20.56° C | 99% | 1010.7 hPa | 0 mm | - | 50 W/m² | - |
| 1777470800 | 20.56° C | 99% | 1010.7 hPa | 0 mm | - | 21 W/m² | - |
| 1777470494 | 20° C | 99% | 1010.7 hPa | 0 mm | - | 14 W/m² | - |
| 1777470188 | 20.56° C | 99% | 1010.7 hPa | 0 mm | - | 12 W/m² | - |
| 1777469882 | 20.56° C | 99% | 1010.8 hPa | 0 mm | - | 16 W/m² | - |
| 1777469584 | 22.78° C | 99% | 1010.8 hPa | 0 mm | - | 20 W/m² | - |
| 1777469270 | 22.22° C | 99% | 1010.8 hPa | 0 mm | - | 46 W/m² | - |
| 1777468964 | 21.11° C | 99% | 1010.7 hPa | 0 mm | - | 66 W/m² | - |
| 1777468658 | 20° C | 99% | 1010.8 hPa | 0 mm | - | 72 W/m² | - |
| 1777468352 | 20° C | 99% | 1010.7 hPa | 0 mm | - | 30 W/m² | - |
| 1777468046 | 19.44° C | 99% | 1010.7 hPa | 0 mm | - | 37 W/m² | - |
| 1777467748 | 19.44° C | 99% | 1010.6 hPa | 0 mm | - | 23 W/m² | - |
| 1777467432 | 19.44° C | 99% | 1010.6 hPa | 0 mm | - | 14 W/m² | - |
| 1777467126 | 19.44° C | 99% | 1010.6 hPa | 0 mm | - | 14 W/m² | - |
| 1777466820 | 18.89° C | 99% | 1010.6 hPa | 0 mm | - | 15 W/m² | - |
| 1777466514 | 18.89° C | 99% | 1010.6 hPa | 0 mm | - | 10 W/m² | - |
| 1777466208 | 18.89° C | 99% | 1010.7 hPa | 0 mm | - | 8 W/m² | - |
| 1777465911 | 18.33° C | 99% | 1010.7 hPa | 0 mm | - | 6 W/m² | - |
| 1777465595 | 18.33° C | 99% | 1010.8 hPa | 0 mm | - | 9 W/m² | - |
| 1777465289 | 18.33° C | 99% | 1010.7 hPa | 0 mm | - | 9 W/m² | - |
* Rain latest hour (hover to see other rain measurements)
** Current wind speed in m/s (hover to see current wind gust speed)